Sturgis, MI

1:58 PM EST on February 18, 2018 (GMT -0500)
Kirsch Municipal

Weather History for KIRS - May, 2013

Change the Weather History Date:

Tuesday, May 7, 2013

  Actual Average (KHAI) Record (KHAI)
Temperature  
Mean Temperature 62 °F -  
Max Temperature 75 °F 67 °F 85 °F (1949)
Min Temperature 48 °F 43 °F 25 °F (1989)
Degree Days  
Heating Degree Days 4    
Growing Degree Days 12 (Base 50)    
Moisture  
Dew Point 47 °F    
Average Humidity 56    
Maximum Humidity 93    
Minimum Humidity 36    
Precipitation  
Precipitation 0.00 in - - ()
Sea Level Pressure  
Sea Level Pressure 30.01 in    
Wind  
Wind Speed 5 mph (East)    
Max Wind Speed 14 mph    
Max Gust Speed 18 mph    
Visibility 10 miles    
Events      
Averages and records for this station are not official NWS values.
T = Trace of Precipitation, MM = Missing Value Source: NWS Daily Summary

Daily Weather History Graph

Daily Weather History Graph

Search for Another Location

Airport or City:

Trip Planner

Search our weather history database for the weather conditions in past years. The results will help you decide how hot, cold, wet, or windy it might be!

Date:

Astronomy

May. 07, 2013 Rise Set
Actual Time 6:30 AM EDT 8:46 PM EDT
Civil Twilight 5:59 AM EDT 9:18 PM EDT
Nautical Twilight 5:21 AM EDT 9:56 PM EDT
Astronomical Twilight 4:38 AM EDT 10:38 PM EDT
Moon 5:06 AM EDT (5/7) 6:44 PM EDT (5/7)
Length of Visible Light 15h 18m
Length of Day
14h 16m
Waning Crescent, 5% of the Moon is Illuminated
May 7
Waning Crescent
May 9
New
May 18
First Quarter
May 25
Full
May 31
Last Quarter

Hourly Weather History & Observations

Time (EDT) Temp. Dew Point Humidity Pressure Visibility Wind Dir Wind Speed Gust Speed Precip Events Conditions
12:15 AM 62.6 °F 44.6 °F 52% 30.01 in 10.0 mi ESE 8.1 mph - N/A   Clear
12:35 AM 60.8 °F 44.6 °F 55% 30.01 in 10.0 mi ESE 5.8 mph - N/A   Clear
12:55 AM 60.8 °F 46.4 °F 59% 30.00 in 10.0 mi East 4.6 mph - N/A   Clear
1:15 AM 60.8 °F 44.6 °F 55% 30.00 in 10.0 mi East 5.8 mph - N/A   Clear
1:34 AM 60.8 °F 44.6 °F 55% 30.00 in 10.0 mi East 4.6 mph - N/A   Clear
1:55 AM 57.2 °F 44.6 °F 63% 30.00 in 10.0 mi East 3.5 mph - N/A   Clear
2:15 AM 57.2 °F 42.8 °F 59% 30.00 in 10.0 mi Calm Calm - N/A   Clear
2:34 AM 57.2 °F 42.8 °F 59% 29.99 in 10.0 mi Calm Calm - N/A   Clear
2:55 AM 57.2 °F 42.8 °F 59% 29.99 in 10.0 mi Calm Calm - N/A   Clear
3:15 AM 53.6 °F 44.6 °F 72% 29.99 in 10.0 mi Calm Calm - N/A   Clear
3:32 AM 53.6 °F 42.8 °F 67% 29.99 in 10.0 mi East 3.5 mph - N/A   Clear
3:55 AM 53.6 °F 42.8 °F 67% 29.99 in 10.0 mi Calm Calm - N/A   Clear
4:14 AM 51.8 °F 42.8 °F 71% 29.99 in 10.0 mi Calm Calm - N/A   Clear
4:35 AM 51.8 °F 42.8 °F 71% 29.99 in 10.0 mi Calm Calm - N/A   Clear
4:55 AM 51.8 °F 42.8 °F 71% 29.99 in 10.0 mi Calm Calm - N/A   Clear
5:15 AM 51.8 °F 42.8 °F 71% 29.99 in 10.0 mi Calm Calm - N/A   Clear
5:35 AM 50.0 °F 46.4 °F 87% 30.00 in 10.0 mi Calm Calm - N/A   Clear
5:54 AM 48.2 °F 44.6 °F 87% 30.01 in 10.0 mi Calm Calm - N/A   Clear
6:15 AM 50.0 °F 46.4 °F 87% 30.01 in 10.0 mi Calm Calm - N/A   Clear
6:34 AM 48.2 °F 46.4 °F 93% 30.02 in 10.0 mi Calm Calm - N/A   Clear
6:55 AM 50.0 °F 46.4 °F 87% 30.02 in 10.0 mi Calm Calm - N/A   Clear
7:15 AM 51.8 °F 46.4 °F 82% 30.03 in 10.0 mi Calm Calm - N/A   Clear
7:34 AM 53.6 °F 46.4 °F 77% 30.03 in 10.0 mi Calm Calm - N/A   Clear
7:55 AM 53.6 °F 44.6 °F 72% 30.03 in 10.0 mi ENE 3.5 mph - N/A   Clear
8:14 AM 57.2 °F 44.6 °F 63% 30.03 in 10.0 mi East 4.6 mph - N/A   Scattered Clouds
8:35 AM 57.2 °F 44.6 °F 63% 30.04 in 10.0 mi East 3.5 mph - N/A   Scattered Clouds
8:55 AM 60.8 °F 46.4 °F 59% 30.04 in 10.0 mi ESE 3.5 mph - N/A   Scattered Clouds
9:14 AM 60.8 °F 46.4 °F 59% 30.04 in 10.0 mi Calm Calm - N/A   Scattered Clouds
9:35 AM 62.6 °F 48.2 °F 59% 30.04 in 10.0 mi Calm Calm - N/A   Mostly Cloudy
9:55 AM 64.4 °F 50.0 °F 59% 30.04 in 10.0 mi Calm Calm - N/A   Scattered Clouds
10:15 AM 66.2 °F 51.8 °F 60% 30.04 in 10.0 mi NNE 4.6 mph - N/A   Clear
10:35 AM 66.2 °F 51.8 °F 60% 30.04 in 10.0 mi NNE 4.6 mph - N/A   Clear
10:55 AM 68.0 °F 50.0 °F 52% 30.03 in 10.0 mi NNE 6.9 mph - N/A   Clear
11:14 AM 69.8 °F 51.8 °F 53% 30.03 in 10.0 mi NNE 8.1 mph - N/A   Clear
11:35 AM 69.8 °F 50.0 °F 49% 30.03 in 10.0 mi North 5.8 mph - N/A   Clear
11:55 AM 71.6 °F 51.8 °F 50% 30.03 in 10.0 mi NNE 8.1 mph - N/A   Clear
12:14 PM 71.6 °F 50.0 °F 46% 30.03 in 10.0 mi ENE 8.1 mph - N/A   Scattered Clouds
12:35 PM 71.6 °F 50.0 °F 46% 30.03 in 10.0 mi ENE 12.7 mph - N/A   Scattered Clouds
12:55 PM 73.4 °F 50.0 °F 44% 30.02 in 10.0 mi ENE 9.2 mph - N/A   Scattered Clouds
1:14 PM 71.6 °F 50.0 °F 46% 30.02 in 10.0 mi East 8.1 mph - N/A   Scattered Clouds
1:35 PM 73.4 °F 48.2 °F 41% 30.01 in 10.0 mi East 5.8 mph 18.4 mph N/A   Scattered Clouds
1:55 PM 71.6 °F 48.2 °F 43% 30.01 in 10.0 mi ENE 9.2 mph - N/A   Mostly Cloudy
2:14 PM 75.2 °F 48.2 °F 38% 30.01 in 10.0 mi East 12.7 mph 17.3 mph N/A   Scattered Clouds
2:35 PM 73.4 °F 48.2 °F 41% 30.00 in 10.0 mi ESE 11.5 mph 18.4 mph N/A   Scattered Clouds
2:54 PM 73.4 °F 46.4 °F 38% 30.00 in 10.0 mi East 12.7 mph 18.4 mph N/A   Scattered Clouds
3:15 PM 75.2 °F 46.4 °F 36% 30.00 in 10.0 mi ESE 13.8 mph 18.4 mph N/A   Clear
3:35 PM 73.4 °F 48.2 °F 41% 30.00 in 10.0 mi ESE 10.4 mph - N/A   Scattered Clouds
3:54 PM 73.4 °F 48.2 °F 41% 30.00 in 10.0 mi ESE 12.7 mph 16.1 mph N/A   Clear
4:14 PM 73.4 °F 48.2 °F 41% 29.99 in 10.0 mi East 11.5 mph - N/A   Scattered Clouds
4:34 PM 73.4 °F 50.0 °F 44% 29.99 in 10.0 mi East 5.8 mph - N/A   Clear
4:55 PM 73.4 °F 50.0 °F 44% 29.98 in 10.0 mi East 8.1 mph - N/A   Scattered Clouds
5:14 PM 73.4 °F 48.2 °F 41% 29.98 in 10.0 mi ESE 9.2 mph - N/A   Scattered Clouds
5:34 PM 73.4 °F 50.0 °F 44% 29.98 in 10.0 mi East 8.1 mph - N/A   Scattered Clouds
5:55 PM 73.4 °F 50.0 °F 44% 29.98 in 10.0 mi SE 6.9 mph - N/A   Scattered Clouds
6:15 PM 73.4 °F 50.0 °F 44% 29.98 in 10.0 mi ESE 8.1 mph - N/A   Scattered Clouds
6:34 PM 73.4 °F 48.2 °F 41% 29.98 in 10.0 mi ESE 6.9 mph - N/A   Scattered Clouds
6:55 PM 71.6 °F 48.2 °F 43% 29.98 in 10.0 mi ESE 5.8 mph - N/A   Scattered Clouds
7:14 PM 71.6 °F 48.2 °F 43% 29.98 in 10.0 mi East 3.5 mph - N/A   Scattered Clouds
7:35 PM 71.6 °F 48.2 °F 43% 29.98 in 10.0 mi East 5.8 mph - N/A   Clear
7:55 PM 71.6 °F 48.2 °F 43% 29.98 in 10.0 mi East 6.9 mph - N/A   Scattered Clouds
8:14 PM 69.8 °F 48.2 °F 46% 29.99 in 10.0 mi East 5.8 mph - N/A   Mostly Cloudy
8:35 PM 69.8 °F 48.2 °F 46% 29.99 in 10.0 mi ESE 5.8 mph - N/A   Mostly Cloudy
8:55 PM 66.2 °F 48.2 °F 52% 30.00 in 10.0 mi ESE 3.5 mph - N/A   Scattered Clouds
9:14 PM 66.2 °F 48.2 °F 52% 30.00 in 10.0 mi ESE 4.6 mph - N/A   Mostly Cloudy
9:35 PM 66.2 °F 48.2 °F 52% 30.01 in 10.0 mi ESE 4.6 mph - N/A   Overcast
9:55 PM 64.4 °F 48.2 °F 56% 30.01 in 10.0 mi ESE 3.5 mph - N/A   Mostly Cloudy
10:15 PM 64.4 °F 48.2 °F 56% 30.02 in 10.0 mi ESE 3.5 mph - N/A   Scattered Clouds
10:34 PM 62.6 °F 48.2 °F 59% 30.02 in 10.0 mi ESE 4.6 mph - N/A   Scattered Clouds
10:55 PM 62.6 °F 48.2 °F 59% 30.02 in 10.0 mi ESE 4.6 mph - N/A   Mostly Cloudy
11:15 PM 62.6 °F 48.2 °F 59% 30.02 in 10.0 mi East 4.6 mph - N/A   Mostly Cloudy
11:35 PM 60.8 °F 48.2 °F 63% 30.02 in 10.0 mi ESE 4.6 mph - N/A   Scattered Clouds
11:55 PM 60.8 °F 48.2 °F 63% 30.02 in 10.0 mi East 3.5 mph - N/A   Clear